Probability
0 0 0 0 0 0 0 0 0 0 0 0 0 0 0 0 0 0 0 0 0 0 0 0 0 0 0 0 0 0 0 0 0 0 0 0 1 1
0 0 0 0 0 0 0 0 0 0 0 0 0 0 0 0 0 0 0 0 0 0 0 0 0 0 0 0 0 0 0 0 0 0 0 0 0 1
0 0 0 0 0 0 0 0 0 0 0 0 0 0 0 0 0 0 0 0 0 0 0 0 0 0 0 0 0 0 0 0 0 0 0 0 0 0
0 0 0 0 0 0 0 0 0 0 1 1 1 0 0 0 0 0 0 0 0 0 0 0 0 0 0 0 0 0 0 0 0 0 0 0 0 0
0 0 0 0 0 0 0 0 0 0 1 2 1 0 0 0 0 0 0 0 0 0 0 0 0 0 0 0 0 0 0 0 0 0 0 0 0 0
0 0 0 0 0 0 0 0 0 0 1 1 1 0 0 0 0 0 0 0 0 0 0 0 0 0 0 0 0 0 0 0 0 0 0 0 0 0
0 0 0 0 0 0 0 0 0 0 0 0 0 0 0 0 0 0 0 0 0 0 0 0 0 0 0 0 0 0 0 0 0 0 0 0 0 0
0 0 0 0 0 0 0 0 0 0 0 0 0 0 0 0 0 0 0 0 0 0 0 0 0 0 0 0 0 0 0 0 0 0 0 0 0 0
0 0 0 0 0 0 0 0 0 0 0 0 0 0 0 0 0 0 0 0 0 0 0 0 0 0 0 0 0 0 0 0 0 0 0 0 0 0
0 0 0 0 0 0 0 0 0 0 0 0 0 0 0 0 0 0 0 0 0 0 0 0 0 0 0 0 0 0 0 0 0 0 0 0 0 0
0 0 0 0 0 0 0 0 0 0 0 0 0 0 0 0 0 0 0 0 0 0 0 0 0 0 0 0 0 0 0 0 0 0 0 0 0 0
0 0 0 0 0 0 0 0 0 0 0 0 0 0 0 0 0 0 0 0 0 0 0 0 0 0 0 0 0 0 0 0 0 0 0 0 0 0
0 0 0 0 0 0 0 0 0 0 0 0 0 0 0 0 0 0 0 0 0 0 0 0 0 0 0 0 0 0 0 0 0 0 0 0 0 0
0 0 0 0 0 0 0 0 0 0 0 0 0 0 0 0 0 0 0 0 0 0 0 0 0 0 0 0 0 0 0 0 0 0 0 0 0 0
0 0 0 0 0 0 0 0 0 0 0 0 0 0 0 0 0 0 0 0 0 0 0 0 0 0 0 0 0 0 0 0 0 0 0 0 0 0
0 0 0 0 0 0 0 0 0 0 0 0 0 0 0 0 0 0 0 0 0 0 0 0 0 0 0 0 0 0 0 0 0 0 0 0 0 0
0 0 0 0 0 0 0 0 0 0 0 0 0 0 0 0 0 0 0 0 0 0 0 0 0 0 0 0 0 0 0 0 0 0 0 0 0 0
0 0 0 0 0 0 0 0 0 0 0 0 0 0 0 0 0 0 0 0 0 0 0 0 0 0 0 0 0 0 0 0 0 0 0 0 0 0
0 0 0 0 0 0 0 0 0 0 0 0 0 0 0 0 0 0 0 0 0 0 0 0 0 0 0 0 0 0 0 0 0 0 0 0 0 0
0 0 0 0 0 0 0 0 0 0 0 0 0 0 0 0 0 0 0 0 0 0 0 0 0 0 0 0 0 0 0 0 0 0 0 0 0 0
0 0 0 0 0 0 0 0 0 0 0 0 0 0 0 0 0 0 0 0 0 0 0 0 0 0 0 0 0 0 0 0 0 0 0 0 0 0
0 0 0 0 0 0 0 0 0 0 0 0 0 0 0 0 0 0 0 0 0 0 0 0 0 0 0 0 0 0 0 0 0 0 0 0 0 0
0 0 0 0 0 0 0 0 0 0 0 0 0 0 0 0 0 0 0 0 0 0 0 0 0 0 0 0 0 0 0 0 0 0 0 0 0 0
Wind_Speed
3 3 2 2 2 2 3 3 4 3 3 2 2 1 1 2 2 3 3 2 4 5 5 5 5 6 6 7 7 8 8 8 9 10 10 11 12 12
3 3 3 3 3 2 3 3 3 4 4 2 2 2 2 2 3 3 3 3 3 4 4 4 5 5 6 6 7 7 7 8 9 10 11 11 11 12
4 4 4 4 3 3 3 3 3 3 5 4 2 2 3 3 3 3 3 3 2 3 4 4 5 5 6 6 7 8 8 9 9 10 11 11 11 12
4 4 4 3 4 4 3 4 3 4 5 5 3 3 4 3 4 4 3 3 3 3 4 5 5 5 5 6 7 8 8 9 9 10 11 11 12 12
4 4 4 4 5 4 4 4 3 3 4 4 4 3 3 2 3 3 3 3 3 3 4 4 5 5 6 7 7 8 8 8 9 9 10 10 11 11
4 4 4 5 5 4 4 4 4 4 4 4 4 3 3 2 3 3 3 2 3 3 3 4 5 6 6 7 7 7 7 8 8 9 10 10 10 11
4 4 4 4 4 4 3 3 4 3 3 4 4 3 3 2 2 2 3 3 3 3 3 3 4 4 4 5 5 6 7 8 8 9 9 9 10 11
3 3 3 4 4 5 5 4 4 4 5 5 4 4 5 4 3 3 3 3 3 2 4 4 4 4 3 3 5 6 7 7 8 9 9 10 10 10
3 3 3 3 4 4 4 4 4 5 7 6 6 6 5 4 4 4 4 4 4 3 4 5 4 4 4 3 5 6 7 7 8 9 9 10 10 10
3 3 3 3 3 3 3 3 4 4 5 5 5 5 5 4 4 4 4 4 4 3 3 4 4 5 5 4 4 5 7 8 8 8 9 10 10 10
3 3 3 3 3 3 3 4 4 4 3 4 5 4 5 5 5 3 3 3 4 3 3 3 3 5 5 4 3 5 7 8 8 9 10 10 10 9
2 2 3 3 4 4 4 4 4 4 3 3 3 4 4 3 4 4 3 3 3 3 2 2 3 3 4 3 4 4 4 6 8 9 9 9 9 6
2 2 2 3 4 4 4 4 4 4 3 3 3 3 2 2 2 3 3 3 4 4 3 2 3 3 4 4 4 4 4 4 5 5 6 8 8 7
2 2 2 3 4 5 4 3 3 3 2 2 2 2 2 2 2 2 3 3 4 5 4 4 4 4 4 5 5 4 5 5 4 4 4 6 7 7
2 3 3 4 4 3 2 3 3 2 2 2 2 2 2 2 2 2 3 2 3 3 4 5 4 4 4 5 5 5 5 5 4 4 4 4 5 5
2 2 3 3 3 3 2 2 1 1 2 2 2 2 2 2 2 2 2 2 2 3 3 3 4 5 5 6 5 5 5 4 4 4 4 5 5 4
2 1 1 1 1 1 2 1 1 1 1 1 2 2 2 2 2 2 2 2 3 3 3 2 3 3 5 5 5 4 4 4 4 4 4 5 5 4
1 1 1 1 2 2 2 1 1 1 1 1 2 2 2 2 2 2 2 2 2 3 3 3 2 3 2 2 3 4 4 4 3 4 4 4 5 4
1 1 1 2 2 2 1 2 2 2 1 1 2 2 2 2 2 2 2 2 2 3 3 3 2 2 3 4 2 3 4 4 3 3 4 4 5 5
1 1 1 1 1 1 1 1 2 1 1 1 2 2 2 2 2 2 2 2 3 3 3 3 3 3 3 4 3 4 4 4 4 4 4 4 4 5
2 2 2 1 1 1 1 1 2 2 2 2 2 2 2 2 2 2 2 3 3 3 3 3 3 4 3 2 2 3 3 4 4 4 4 4 4 4
2 2 2 2 2 1 1 1 1 1 2 2 2 2 2 2 2 3 2 2 2 3 3 3 2 2 2 2 3 3 4 4 4 4 4 4 3 3
2 2 2 2 2 2 2 2 2 2 2 2 2 2 2 2 2 2 2 2 2 2 2 2 2 2 1 2 2 3 3 4 3 3 3 4 4 5
Wind_Direction
247 245 245 250 254 251 248 243 250 254 244 225 228 226 273 278 285 277 278 303 300 298 296 298 301 301 299 299 297 296 296 297 298 297 295 295 294 296
248 245 246 242 238 240 240 243 248 256 259 250 260 291 294 292 292 282 277 276 269 287 294 300 304 301 300 301 303 296 294 292 295 297 293 292 295 299
247 247 250 249 242 238 233 234 239 248 254 262 261 275 282 281 290 289 281 278 266 278 292 291 296 298 296 299 299 296 291 292 294 293 293 293 294 295
254 249 247 244 242 243 237 234 237 247 251 259 263 267 277 283 287 287 294 288 278 275 282 281 281 283 288 293 294 294 292 293 295 294 292 293 294 295
255 252 247 242 240 237 235 236 235 241 249 251 259 266 272 273 284 287 288 288 290 275 268 267 274 279 284 286 289 293 295 295 293 294 295 295 295 298
253 252 250 245 243 239 236 235 234 235 243 246 246 254 262 267 267 278 289 292 299 298 286 274 270 271 273 280 284 289 293 296 297 296 296 297 297 299
252 253 255 259 260 250 244 239 234 237 240 248 246 254 256 251 258 278 281 299 303 295 299 291 284 278 274 271 278 287 292 296 298 297 297 298 297 297
259 262 260 250 253 248 247 252 251 248 247 249 249 245 253 263 274 262 271 284 291 300 307 304 300 291 291 290 298 296 294 296 298 300 298 296 295 297
262 263 267 263 262 249 241 242 248 257 258 256 257 253 257 260 264 259 258 273 284 296 302 294 298 297 299 297 303 299 301 301 300 302 303 301 299 296
273 270 270 269 264 249 243 242 246 254 258 255 257 264 264 261 255 261 270 284 288 284 283 283 297 301 306 299 293 300 308 309 306 304 304 304 301 298
282 279 274 273 272 256 253 250 255 264 262 262 268 272 279 274 264 251 255 261 279 290 294 281 296 309 300 290 290 291 299 303 303 304 305 306 305 303
273 272 274 279 279 267 258 257 262 268 268 264 263 258 257 255 254 254 249 247 269 278 281 290 293 310 299 293 303 304 295 293 297 302 304 306 309 304
268 272 278 280 279 276 272 270 270 273 265 261 264 263 258 255 260 266 265 254 256 262 271 288 283 288 280 294 300 297 295 301 303 302 301 306 310 305
269 271 277 280 283 282 278 276 285 283 263 259 263 269 266 268 276 281 281 277 272 267 265 273 272 279 284 289 288 295 303 303 303 306 313 314 307 301
282 288 296 299 298 288 279 278 275 271 268 265 266 277 281 279 280 280 286 286 288 283 273 270 264 269 273 274 279 286 300 304 302 307 313 313 311 309
286 286 289 295 298 305 302 280 275 280 279 277 287 291 286 274 268 270 276 288 294 299 298 286 277 272 271 271 269 274 283 289 301 309 312 309 307 304
297 278 279 284 287 292 297 287 281 276 276 281 287 291 294 291 284 282 277 284 281 286 299 308 304 293 278 270 266 267 280 291 296 306 310 308 307 308
288 271 278 285 289 294 297 309 310 297 293 292 284 281 284 284 286 287 283 277 281 286 291 300 307 311 301 283 256 267 281 293 301 306 305 302 306 313
271 284 288 288 295 299 302 305 305 304 300 284 281 278 275 271 271 274 274 274 280 283 287 288 287 287 293 299 301 267 283 296 302 304 302 299 300 308
321 310 306 305 300 299 305 310 307 303 290 281 279 277 272 271 271 269 265 268 279 285 287 287 285 284 283 291 295 299 295 290 294 297 301 303 299 297
341 331 322 314 306 302 304 302 298 296 297 294 286 279 274 272 275 278 276 275 277 278 283 290 300 302 293 283 280 293 317 319 306 295 297 299 303 305
338 331 327 324 319 309 298 295 297 296 295 290 291 288 283 274 272 276 273 270 273 279 289 295 299 298 290 274 286 298 312 326 334 326 308 296 301 300
326 323 321 322 322 318 308 299 296 294 294 294 292 291 290 283 276 272 271 271 275 279 286 295 306 314 305 289 292 298 308 323 332 341 340 337 319 303